Terug naar catalogus

STARLINK-5351

ActiefCommunicatieVLEO
NORAD 56511·PAYLOAD·🇺🇸 United States

Gelanceerd May 14, 2023 vanaf Cape Canaveral Space Force Station

Loading…

Volgende Passages (komende 24 uur)

TLE

VersSource: CelesTrak SupGP

Epoch: Sep 14, 2026, 22:17 UTC

1 56511C 23065J   26257.92895833  .00013492  00000+0  48866-3 0  2573
2 56511  42.9995 223.6026 0001126 254.1813  89.4524 15.27573622    16

Volg STARLINK-5351 in realtime met AllMySat

Download on the App Store